Location: Bermeries
(50.2863°N, 3.7551°E)
Time: 21:40:49
(UTC+00:00)

IDEFIX/ARIANE 42P - Pass Details

Date: 23 May 2024
Orbit: 783 x 799 km, 98.5° (Epoch: 14 June)

Event Time Altitude Azimuth Distance (km) Brightness Sun altitude
Rises 01:17:12 0° 17° (NNE) 3,317 7.6 -16.0°
Reaches altitude 10° 01:19:36 10° 22° (NNE) 2,384 6.4 -15.8°
Maximum altitude 01:24:47 57° 101° (E) 940 3.0 -15.5°
Enters shadow 01:28:31 19° 175° (S) 1,834 4.0 -15.2°
